Location: Bluff Heights
(33.7692°N, 118.1592°W)
Time: 03:18:35
(UTC+00:00)

S-56A Canister/Altair - Pass Details

Date: 27 July 2021
Orbit: 632 x 2500 km, 38.9° (Epoch: 18 September)

Event Time Altitude Azimuth Distance (km) Brightness Sun altitude
Rises 04:18:18 0° 287° (WNW) 6,167 13.5 -15.4°
Reaches altitude 10° 04:22:30 10° 288° (WNW) 5,089 12.9 -16.1°
Maximum altitude 04:37:02 81° 17° (NNE) 2,042 9.6 -18.5°
Enters shadow 04:44:49 22° 103° (ESE) 3,056 10.0 -19.7°
